Weather History for KGSP - April, 2013

Change the Weather History Date:

Tuesday, April 30, 2013

  Actual Average Record
Temperature  
Mean Temperature 65 °F 64 °F  
Max Temperature 76 °F 76 °F 91 °F (1987)
Min Temperature 54 °F 52 °F 39 °F (1980)
Degree Days  
Heating Degree Days 0 3  
Month to date heating degree days 153 173  
Since 1 July heating degree days 2893 3006  
Cooling Degree Days 0 2  
Month to date cooling degree days 35 40  
Year to date cooling degree days 37 48  
Growing Degree Days 14 (Base 50)    
Moisture  
Dew Point 57 °F    
Average Humidity 75    
Maximum Humidity 100    
Minimum Humidity 50    
Precipitation  
Precipitation 0.00 in 0.11 in 1.86 in (1953)
Month to date precipitation 4.72 3.36  
Year to date precipitation 17.39 15.67  
Snow  
Snow 0.00 in 0.00 in 0.00 in ()
Month to date snowfall 0.0 T  
Since 1 July snowfall 2.0 4.7  
Snow Depth 0.00 in    
Sea Level Pressure  
Sea Level Pressure 30.04 in    
Wind  
Wind Speed 6 mph (NE)    
Max Wind Speed 15 mph    
Max Gust Speed 18 mph    
Visibility 7 miles    
Events Fog    
T = Trace of Precipitation, MM = Missing Value Source: NWS Daily Summary

Daily Weather History Graph

Daily Weather History Graph

Search for Another Location

Airport or City:

Trip Planner

Search our weather history database for the weather conditions in past years. The results will help you decide how hot, cold, wet, or windy it might be!

Date:

Astronomy

Apr. 30, 2013 Rise Set
Actual Time 6:39 AM EDT 8:13 PM EDT
Civil Twilight 6:12 AM EDT 8:40 PM EDT
Nautical Twilight 5:39 AM EDT 9:13 PM EDT
Astronomical Twilight 5:05 AM EDT 9:47 PM EDT
Moon 12:32 AM EDT (4/30) 11:08 AM EDT (4/30)
Length of Visible Light 14h 28m
Length of Day
13h 34m
Waning Gibbous, 70% of the Moon is Illuminated
Apr 30
Waning Gibbous
May 2
Last Quarter
May 9
New
May 18
First Quarter
May 25
Full

Hourly Weather History & Observations

Time (EDT) Temp. Dew Point Humidity Pressure Visibility Wind Dir Wind Speed Gust Speed Precip Events Conditions
12:50 AM 57.2 °F 57.2 °F 100% 29.99 in 1.0 mi Calm Calm - N/A   Clear
12:53 AM 57.9 °F 57.0 °F 97% 29.98 in 0.8 mi Calm Calm - N/A   Clear
1:01 AM 57.2 °F 55.4 °F 94% 29.99 in 1.5 mi Calm Calm - N/A   Clear
1:11 AM 57.2 °F 55.4 °F 94% 29.99 in 1.0 mi Calm Calm - N/A   Clear
1:17 AM 57.2 °F 55.4 °F 94% 29.99 in 2.0 mi Calm Calm - N/A   Clear
1:26 AM 57.2 °F 57.2 °F 100% 29.98 in 9.0 mi Calm Calm - N/A   Clear
1:36 AM 57.2 °F 55.4 °F 94% 29.98 in 1.5 mi Calm Calm - N/A   Clear
1:38 AM 57.2 °F 55.4 °F 94% 29.98 in 0.8 mi Calm Calm - N/A   Mist
1:49 AM 57.2 °F 55.4 °F 94% 29.98 in 1.0 mi Calm Calm - N/A   Clear
1:53 AM 57.0 °F 55.9 °F 96% 29.96 in 4.0 mi Calm Calm - N/A   Clear
2:53 AM 55.0 °F 54.0 °F 96% 29.96 in 6.0 mi Calm Calm - N/A   Clear
3:09 AM 53.6 °F 53.6 °F 100% 29.98 in 1.8 mi Calm Calm - N/A   Clear
3:20 AM 53.6 °F 53.6 °F 100% 29.98 in 4.0 mi Calm Calm - N/A   Clear
3:53 AM 55.0 °F 54.0 °F 96% 29.97 in 10.0 mi Calm Calm - N/A   Clear
4:53 AM 54.0 °F 54.0 °F 100% 29.99 in 10.0 mi Calm Calm - N/A   Partly Cloudy
5:53 AM 55.9 °F 55.0 °F 97% 29.99 in 10.0 mi North 3.5 mph - N/A   Scattered Clouds
6:04 AM 57.2 °F 55.4 °F 94% 30.02 in 10.0 mi North 3.5 mph - N/A   Mostly Cloudy
6:53 AM 55.9 °F 55.0 °F 97% 30.01 in 10.0 mi NNE 5.8 mph - N/A   Partly Cloudy
7:08 AM 55.4 °F 55.4 °F 100% 30.04 in 10.0 mi North 4.6 mph - N/A   Overcast
7:24 AM 57.2 °F 55.4 °F 94% 30.05 in 1.5 mi NNE 4.6 mph - N/A   Overcast
7:26 AM 57.2 °F 55.4 °F 94% 30.05 in 0.1 mi NNE 4.6 mph - N/A Fog Fog
7:53 AM 57.0 °F 57.0 °F 100% 30.04 in 0.1 mi NNE 5.8 mph - N/A Fog Fog
8:53 AM 59.0 °F 59.0 °F 100% 30.06 in 1.0 mi NNE 8.1 mph - N/A   Overcast
9:03 AM 59.0 °F 59.0 °F 100% 30.08 in 2.0 mi NNE 8.1 mph - N/A   Overcast
9:15 AM 60.8 °F 59.0 °F 94% 30.08 in 3.0 mi NNE 10.4 mph - N/A   Overcast
9:53 AM 60.1 °F 59.0 °F 96% 30.06 in 5.0 mi NNE 9.2 mph - N/A   Overcast
10:37 AM 62.6 °F 60.8 °F 94% 30.09 in 9.0 mi NE 8.1 mph - N/A   Overcast
10:53 AM 64.0 °F 60.1 °F 87% 30.08 in 10.0 mi NNE 9.2 mph - N/A   Overcast
11:53 AM 64.9 °F 60.1 °F 84% 30.09 in 10.0 mi East 6.9 mph - N/A   Overcast
12:53 PM 64.9 °F 60.1 °F 84% 30.08 in 10.0 mi ENE 6.9 mph - N/A   Overcast
1:53 PM 70.0 °F 62.1 °F 76% 30.06 in 10.0 mi East 8.1 mph - N/A   Mostly Cloudy
2:31 PM 71.6 °F 60.8 °F 69% 30.07 in 10.0 mi ESE 8.1 mph - N/A   Partly Cloudy
2:53 PM 72.0 °F 60.1 °F 66% 30.04 in 10.0 mi ESE 8.1 mph - N/A   Partly Cloudy
3:53 PM 73.0 °F 57.0 °F 57% 30.03 in 10.0 mi SE 9.2 mph - N/A   Scattered Clouds
4:53 PM 75.0 °F 55.9 °F 51% 30.03 in 10.0 mi Variable 3.5 mph - N/A   Clear
5:53 PM 71.1 °F 60.1 °F 68% 30.05 in 10.0 mi East 13.8 mph - N/A   Overcast
6:53 PM 69.1 °F 59.0 °F 70% 30.06 in 10.0 mi ESE 8.1 mph - N/A   Mostly Cloudy
7:53 PM 66.9 °F 59.0 °F 76% 30.07 in 10.0 mi ESE 4.6 mph - N/A   Clear
8:53 PM 63.0 °F 60.1 °F 90% 30.08 in 10.0 mi NE 3.5 mph - N/A   Clear
9:53 PM 63.0 °F 60.1 °F 90% 30.11 in 10.0 mi NE 3.5 mph - N/A   Clear
10:53 PM 63.0 °F 59.0 °F 87% 30.13 in 10.0 mi ENE 10.4 mph - N/A   Clear
11:53 PM 62.1 °F 57.9 °F 86% 30.14 in 10.0 mi ENE 6.9 mph - N/A   Clear